This demonstration page uses our WeatherBlox Daily Observations layout. Learn more.

Left ArrowRight Arrow

39.01783, -85.05884

Hourly Observations for March 6, 2020

Temp ( °F °C ) Dew Point ( °F °C ) Humidity (%) Winds ( mph kmh ) Pressure ( in mb ) Visibility ( mi km ) Precip ( " mm )
12:52 am 00:52 Clear 45 7.2 26 -3.3 48 48 WNW 12 19 29.96 1014 10 16 0.00 0.00
1:52 am 01:52 Mostly Cloudy 43 6.1 25 -3.9 49 49 WNW 10 17 29.96 1015 10 16 0.00 0.00
2:52 am 02:52 Cloudy 42 5.6 26 -3.3 53 53 W 15 24 29.96 1015 10 16 0.00 0.00
3:52 am 03:52 Cloudy 41 5 26 -3.3 55 55 WNW 18 30 29.96 1014 10 16 0.00 0.00
4:52 am 04:52 Cloudy with Light Rain 40 4.4 28 -2.2 63 63 WNW 15 24 29.97 1015 10 16 0.00 0.00
5:52 am 05:52 Cloudy with Light Rain/Snow 37 2.8 30 -1.1 76 76 WNW 21 33 30.01 1016 10 16 0.00 0.00
6:52 am 06:52 Cloudy with Light Rain/Snow 36 2.2 30 -1.1 79 79 WNW 21 33 30.03 1017 8 13 0.00 0.00
7:02 am 07:02 Cloudy with Light Snow 36 2.2 31 -0.6 82 82 W 17 28 30.07 1018 7 11 0.00 0.00
7:25 am 07:25 Windy with Snow Likely 35 1.7 31 -0.6 85 85 WNW 21 33 30.08 1019 7 11 0.00 0.00
7:52 am 07:52 Cloudy 35 1.7 31 -0.6 85 85 WNW 20 31 30.06 1018 8 13 0.00 0.00
8:31 am 08:31 Cloudy 36 2.2 31 -0.6 82 82 WNW 20 31 30.11 1020 10 16 0.00 0.00
8:52 am 08:52 Cloudy 36 2.2 30 -1.1 79 79 WNW 21 33 30.09 1019 10 16 0.00 0.00
9:52 am 09:52 Cloudy with Light Snow 36 2.2 30 -1.1 79 79 WNW 18 30 30.12 1020 10 16 0.00 0.00
10:52 am 10:52 Cloudy with Light Snow 36 2.2 30 -1.1 79 79 NW 18 30 30.16 1021 8 13 0.00 0.00
11:52 am 11:52 Cloudy 35 1.7 27 -2.8 72 72 WNW 28 44 30.19 1022 9 14 0.00 0.00
12:52 pm 12:52 Cloudy 36 2.2 26 -3.3 67 67 WNW 18 30 30.22 1023 10 16 0.00 0.00
1:52 pm 13:52 Cloudy 36 2.2 27 -2.8 70 70 NW 24 39 30.22 1024 10 16 0.00 0.00
2:52 pm 14:52 Cloudy 36 2.2 27 -2.8 70 70 NW 22 35 30.24 1024 10 16 0.00 0.00
3:52 pm 15:52 Cloudy 36 2.2 28 -2.2 73 73 WNW 17 28 30.27 1025 10 16 0.00 0.00
4:52 pm 16:52 Cloudy 36 2.2 28 -2.2 73 73 WNW 24 39 30.30 1026 10 16 0.00 0.00
5:52 pm 17:52 Cloudy 36 2.2 29 -1.7 76 76 WNW 15 24 30.33 1027 10 16 0.00 0.00
6:52 pm 18:52 Cloudy 36 2.2 29 -1.7 76 76 WNW 14 22 30.36 1028 10 16 0.00 0.00
7:52 pm 19:52 Cloudy 36 2.2 27 -2.8 70 70 NW 14 22 30.38 1029 10 16 0.00 0.00
8:52 pm 20:52 Cloudy 35 1.7 26 -3.3 70 70 NW 13 20 30.40 1030 10 16 0.00 0.00
9:15 pm 21:15 Cloudy 35 1.7 25 -3.9 67 67 NNW 14 22 30.44 1031 10 16 0.00 0.00
9:52 pm 21:52 Cloudy 35 1.7 25 -3.9 67 67 NNW 13 20 30.42 1030 10 16 0.00 0.00
10:52 pm 22:52 Cloudy 34 1.1 24 -4.4 67 67 NW 10 17 30.44 1031 10 16 0.00 0.00
11:52 pm 23:52 Cloudy 34 1.1 25 -3.9 70 70 NW 9 15 30.45 1031 10 16 0.00 0.00

Powered by AerisWeather